Location: Sankt Anna
(58.3452°N, 16.7040°E)
Time: 01:31:54
(UTC+02:00)

PCSat - Visible Passes

Search period start: 22 May 2019 00:00
Search period end: 01 June 2019 00:00
Orbit: 785 x 794 km, 67.1° (Epoch: 21 May)

Date Brightness Start Highest point End Pass type
(mag) Time Alt. Az. Time Alt. Az. Time Alt. Az.
22 May 11.4 01:25:32 10° WNW 01:28:34 15° WSW 01:31:33 10° SW visible
22 May 9.7 23:09:50 10° NW 23:15:16 71° SW 23:20:30 11° SSE visible
23 May 11.2 00:54:04 10° WNW 00:57:51 19° WSW 01:01:12 11° SSW visible
23 May 9.6 22:38:50 10° NW 22:44:19 85° SW 22:49:46 10° SE visible
24 May 11.0 00:22:48 10° WNW 00:27:06 24° WSW 00:30:53 12° SSW visible
24 May 10.7 23:51:38 10° WNW 23:56:19 30° WSW 00:00:36 12° S visible
25 May 10.5 23:20:31 10° NW 23:25:30 37° WSW 23:30:21 10° S visible
26 May 10.2 22:49:27 10° NW 22:54:38 46° WSW 22:59:48 10° SSE visible
27 May 11.8 00:35:12 10° W 00:36:47 11° WSW 00:38:21 10° WSW visible
28 May 11.7 00:03:12 10° WNW 00:06:07 15° WSW 00:09:00 10° SW visible
28 May 11.5 23:31:43 10° WNW 23:35:24 19° WSW 23:39:04 10° SSW visible
29 May 11.2 23:00:25 10° WNW 23:04:39 24° WSW 23:08:52 10° SSW visible
